THY9UT LROP-LTFM

Flight info

Callsign THY9UT
Flight time N/A
Altitude 27000
Route IDARU DCT NONQE DCT MAXOV DCT MATEL L620 RIXEN
Aircraft A319/M-SDE3FGHIRWY/LB1

Departure

Time 2026-05-05 11:47
Airport Bucharest Henri Coandă International Airport (LROP)

Arrival

Time N/A
Airport İstanbul Airport (LTFM)
Time Latitude Longitude Altitude Speed Heading
2026-05-05 10:22 44.57028 26.08194 317 ft 0 kts 354°
2026-05-05 11:35 44.57018 26.08196 316 ft 7 kts 355°
2026-05-05 11:35 44.56992 26.08197 315 ft 5 kts
2026-05-05 11:35 44.56965 26.08194 314 ft 4 kts 16°
2026-05-05 11:35 44.56944 26.08178 315 ft 4 kts 66°
2026-05-05 11:36 44.56941 26.08164 315 ft 3 kts 84°
2026-05-05 11:36 44.56941 26.08163 315 ft 18 kts 84°
2026-05-05 11:40 44.56943 26.08187 317 ft 6 kts 84°
2026-05-05 11:40 44.56949 26.08279 315 ft 13 kts 84°
2026-05-05 11:40 44.56987 26.08389 316 ft 14 kts 18°
2026-05-05 11:41 44.57091 26.08377 315 ft 16 kts 354°
2026-05-05 11:41 44.57205 26.08363 317 ft 14 kts
2026-05-05 11:41 44.57252 26.08468 318 ft 13 kts 50°
2026-05-05 11:41 44.57342 26.08487 321 ft 15 kts 354°
2026-05-05 11:42 44.57451 26.08471 322 ft 16 kts 354°
2026-05-05 11:42 44.57501 26.08568 323 ft 15 kts 82°
2026-05-05 11:42 44.57512 26.08731 322 ft 19 kts 84°
2026-05-05 11:42 44.57528 26.08935 320 ft 24 kts 84°
2026-05-05 11:43 44.57547 26.09181 318 ft 27 kts 84°
2026-05-05 11:43 44.57568 26.09450 318 ft 29 kts 84°
2026-05-05 11:43 44.57590 26.09739 319 ft 30 kts 84°
2026-05-05 11:43 44.57612 26.10034 323 ft 30 kts 85°
2026-05-05 11:44 44.57634 26.10344 321 ft 33 kts 83°
2026-05-05 11:44 44.57661 26.10673 316 ft 37 kts 84°
2026-05-05 11:44 44.57687 26.11037 314 ft 39 kts 84°
2026-05-05 11:44 44.57716 26.11417 314 ft 34 kts 84°
2026-05-05 11:45 44.57740 26.11738 318 ft 32 kts 84°
2026-05-05 11:45 44.57763 26.12051 318 ft 30 kts 84°
2026-05-05 11:45 44.57785 26.12342 316 ft 30 kts 83°
2026-05-05 11:45 44.57807 26.12638 310 ft 29 kts 84°
2026-05-05 11:46 44.57831 26.12848 309 ft 20 kts 56°
2026-05-05 11:46 44.57914 26.12824 310 ft 12 kts 326°
2026-05-05 11:46 44.57984 26.12740 311 ft 14 kts 298°
2026-05-05 11:46 44.57972 26.12500 315 ft 48 kts 264°
2026-05-05 11:47 44.57916 26.11770 318 ft 102 kts 264°
2026-05-05 11:47 44.57823 26.10533 319 ft 153 kts 264°
2026-05-05 11:47 44.57699 26.08962 788 ft 159 kts 263°
2026-05-05 11:47 44.57577 26.07463 1534 ft 151 kts 262°
2026-05-05 11:48 44.57334 26.04209 2301 ft 186 kts 262°
2026-05-05 11:48 44.56847 26.02440 2576 ft 209 kts 229°
2026-05-05 11:48 44.55579 26.01282 2998 ft 233 kts 195°
2026-05-05 11:49 44.53895 26.01274 3569 ft 255 kts 163°
2026-05-05 11:49 44.52331 26.02544 4339 ft 267 kts 133°
2026-05-05 11:49 44.51342 26.04750 5225 ft 272 kts 106°
2026-05-05 11:49 44.51097 26.07340 6213 ft 268 kts 81°
2026-05-05 11:50 44.51433 26.09902 7227 ft 267 kts 74°
2026-05-05 11:50 44.51812 26.12453 8201 ft 269 kts 74°
2026-05-05 11:50 44.52194 26.15026 9154 ft 271 kts 75°
2026-05-05 11:50 44.52568 26.17626 10096 ft 274 kts 77°
2026-05-05 11:51 44.52502 26.20392 10535 ft 302 kts 101°
2026-05-05 11:51 44.51518 26.23160 10792 ft 333 kts 118°
2026-05-05 11:51 44.50232 26.25989 11058 ft 353 kts 119°
2026-05-05 11:51 44.48881 26.28909 11648 ft 361 kts 119°
2026-05-05 11:52 44.47504 26.31874 12336 ft 365 kts 119°
2026-05-05 11:52 44.46114 26.34881 13034 ft 370 kts 119°
2026-05-05 11:52 44.44711 26.37930 13731 ft 374 kts 118°
2026-05-05 11:52 44.43301 26.41011 14362 ft 378 kts 119°
2026-05-05 11:53 44.41881 26.44131 14977 ft 382 kts 119°
2026-05-05 11:53 44.40450 26.47281 15593 ft 385 kts 119°
2026-05-05 11:53 44.39006 26.50453 16212 ft 389 kts 119°
2026-05-05 11:53 44.37544 26.53654 16849 ft 392 kts 119°
2026-05-05 11:54 44.36065 26.56880 17487 ft 396 kts 120°
2026-05-05 11:54 44.34572 26.60126 18115 ft 400 kts 120°
2026-05-05 11:54 44.33057 26.63410 18701 ft 403 kts 120°
2026-05-05 11:54 44.31531 26.66713 19250 ft 407 kts 120°
2026-05-05 11:55 44.29987 26.70068 19718 ft 411 kts 120°
2026-05-05 11:55 44.28472 26.73456 20312 ft 412 kts 117°
2026-05-05 11:55 44.28304 26.73850 20378 ft 412 kts 117°
2026-05-05 11:55 44.27072 26.76837 20842 ft 414 kts 116°
2026-05-05 11:56 44.25685 26.80366 21356 ft 416 kts 115°
2026-05-05 11:56 44.24758 26.82775 21693 ft 418 kts 115°
2026-05-05 11:56 44.23383 26.86362 22178 ft 421 kts 115°
2026-05-05 11:56 44.21992 26.89960 22651 ft 424 kts 115°
2026-05-05 11:57 44.20593 26.93537 23108 ft 427 kts 115°
2026-05-05 11:57 44.19134 26.97213 23592 ft 430 kts 116°
2026-05-05 11:57 44.17674 27.00854 23981 ft 432 kts 116°
2026-05-05 11:57 44.16212 27.04470 24361 ft 435 kts 117°
2026-05-05 11:58 44.14390 27.07882 24733 ft 443 kts 132°
2026-05-05 11:58 44.12025 27.10417 25098 ft 452 kts 148°
2026-05-05 11:58 44.09103 27.12097 25477 ft 458 kts 159°
2026-05-05 11:58 44.06069 27.13501 25851 ft 460 kts 160°
2026-05-05 11:59 44.03017 27.14883 26224 ft 462 kts 160°
2026-05-05 11:59 43.99946 27.16261 26567 ft 465 kts 160°
2026-05-05 11:59 43.96859 27.17644 26927 ft 467 kts 160°
2026-05-05 11:59 43.93766 27.19036 27042 ft 469 kts 160°
2026-05-05 12:00 43.90654 27.20446 27047 ft 470 kts 160°
2026-05-05 12:00 43.87544 27.21859 27050 ft 471 kts 160°
2026-05-05 12:00 43.84426 27.23274 27050 ft 471 kts 160°
2026-05-05 12:00 43.81383 27.24905 27051 ft 469 kts 152°
2026-05-05 12:01 43.78555 27.27114 27055 ft 466 kts 144°
2026-05-05 12:01 43.75852 27.29604 27056 ft 467 kts 144°
2026-05-05 12:01 43.73143 27.32075 27053 ft 467 kts 144°
2026-05-05 12:01 43.70419 27.34543 27051 ft 467 kts 144°
2026-05-05 12:02 43.67704 27.36991 27048 ft 467 kts 144°
2026-05-05 12:02 43.64984 27.39446 27044 ft 467 kts 144°
2026-05-05 12:02 43.62267 27.41901 27045 ft 466 kts 144°
2026-05-05 12:02 43.59552 27.44358 27045 ft 466 kts 144°
2026-05-05 12:03 43.56843 27.46811 27042 ft 466 kts 144°
2026-05-05 12:03 43.54129 27.49263 27043 ft 466 kts 144°
2026-05-05 12:03 43.51414 27.51710 27037 ft 467 kts 144°
2026-05-05 12:03 43.48693 27.54158 27056 ft 467 kts 144°
2026-05-05 12:04 43.45973 27.56601 27062 ft 467 kts 144°
2026-05-05 12:04 43.43256 27.59039 27063 ft 467 kts 144°
2026-05-05 12:04 43.42333 27.59868 27063 ft 467 kts 144°